�N����,����,�~����,�C��,���x,�C��,����,���ϕ���,�ő�u�ԕ���,�ő厞����,���˗�,�I�_���x,�n�����x,�ő啗���N��,DTYPE
"16/09/09","00:10",0.0,20.1,92.4,1000.5,292.6,1.0,1.6,322.3,0.00,18.9,24.4,"00:09:28",1
"16/09/09","00:20",0.0,20.1,93.0,1000.8,330.7,0.6,1.3,325.0,0.00,19.0,24.6,"00:12:40",1
"16/09/09","00:30",0.0,20.0,93.1,1000.5,306.7,0.8,1.4,316.2,0.00,18.9,24.2,"00:21:20",1
"16/09/09","00:40",0.0,19.9,93.5,1001.0,305.6,1.0,1.7,322.1,0.00,18.9,24.5,"00:39:20",1
"16/09/09","00:50",0.0,19.8,93.8,1000.8,311.9,1.0,1.6,328.5,0.00,18.8,24.1,"00:40:56",1
"16/09/09","01:00",0.0,19.7,94.2,1000.8,306.0,0.6,1.2,329.2,0.00,18.8,24.2,"00:59:04",1
"16/09/09","01:10",0.0,20.0,94.2,1000.3,314.4,1.0,2.1,341.0,0.00,19.1,24.3,"01:00:02",1
"16/09/09","01:20",0.0,20.4,93.5,1000.8,339.3,1.0,1.9,354.6,0.00,19.4,24.0,"01:10:24",1
"16/09/09","01:30",0.0,20.7,92.4,1000.5,352.4,0.8,1.7,343.4,0.00,19.5,24.2,"01:22:08",1
"16/09/09","01:40",0.0,20.6,91.8,1000.8,297.1,0.6,1.2,317.5,0.00,19.3,24.1,"01:32:08",1
"16/09/09","01:50",0.0,20.4,92.2,1000.8,294.2,0.3,1.2,307.8,0.00,19.1,24.0,"01:43:36",1
"16/09/09","02:00",0.0,20.3,92.4,1001.0,327.7,1.1,2.2,334.3,0.00,19.1,24.2,"01:55:28",1
"16/09/09","02:10",0.0,20.2,92.8,1000.3,324.0,1.3,1.9,332.8,0.00,19.0,24.1,"02:06:16",1
"16/09/09","02:20",0.0,20.0,93.1,1001.0,303.4,1.0,1.4,320.2,0.00,18.9,24.1,"02:13:44",1
"16/09/09","02:30",0.0,20.0,93.5,1000.8,301.1,0.5,1.1,328.6,0.00,19.0,23.9,"02:22:08",1
"16/09/09","02:40",0.0,20.0,93.9,1001.0,342.4,0.8,1.2,321.5,0.00,19.0,23.9,"02:30:40",1
"16/09/09","02:50",0.0,20.1,93.8,1001.2,300.4,0.7,1.2,328.7,0.00,19.1,24.1,"02:43:04",1
"16/09/09","03:00",0.0,20.4,93.9,1001.0,296.3,0.7,1.8,334.2,0.00,19.4,23.9,"02:55:44",1
"16/09/09","03:10",0.0,20.8,93.3,1001.5,312.0,1.0,1.8,313.9,0.00,19.7,23.8,"03:06:00",1
"16/09/09","03:20",0.0,20.9,92.5,1001.5,307.1,0.8,1.4,330.2,0.00,19.7,23.8,"03:19:36",1
"16/09/09","03:30",0.0,21.0,91.7,1001.5,347.7,1.1,2.2,10.0,0.00,19.6,24.0,"03:26:08",1
"16/09/09","03:40",0.0,20.9,91.5,1001.9,349.9,1.1,2.0,326.9,0.00,19.5,23.9,"03:38:56",1
"16/09/09","03:50",0.0,20.8,91.4,1001.5,343.6,1.1,2.2,11.2,0.00,19.4,24.1,"03:40:56",1
"16/09/09","04:00",0.0,20.8,91.0,1001.5,299.1,0.7,1.3,352.7,0.00,19.3,23.7,"03:55:20",1
"16/09/09","04:10",0.0,20.6,91.3,1001.7,320.2,0.7,1.3,336.1,0.00,19.2,23.8,"04:05:04",1
"16/09/09","04:20",0.0,20.4,91.8,1001.5,299.2,0.8,1.3,317.2,0.00,19.1,23.9,"04:15:04",1
"16/09/09","04:30",0.0,20.3,92.3,1001.9,313.9,1.0,1.4,310.9,0.00,19.0,23.8,"04:22:32",1
"16/09/09","04:40",0.0,20.2,92.7,1001.9,324.8,0.8,1.4,341.7,0.00,19.0,24.0,"04:30:48",1
"16/09/09","04:50",0.0,20.1,93.0,1001.9,320.6,1.1,1.8,337.1,0.00,19.0,23.7,"04:43:36",1
"16/09/09","05:00",0.0,20.0,93.3,1001.7,294.5,1.0,2.0,346.3,0.00,18.9,23.6,"04:51:36",1
"16/09/09","05:10",0.0,20.1,93.5,1001.7,314.3,0.7,1.2,330.5,0.00,19.1,23.7,"05:06:40",1
"16/09/09","05:20",0.0,20.3,93.3,1001.7,311.7,0.8,1.6,324.5,0.00,19.2,23.8,"05:15:52",1
"16/09/09","05:30",0.0,20.4,92.8,1001.7,312.8,0.7,1.7,338.6,0.00,19.2,23.8,"05:27:12",1
"16/09/09","05:40",0.0,20.7,92.1,1001.7,316.5,1.0,4.1,232.5,0.00,19.4,23.5,"05:38:00",1
"16/09/09","05:50",0.0,20.8,91.2,1001.9,336.3,1.0,1.8,356.4,0.00,19.4,23.6,"05:46:40",1
"16/09/09","06:00",0.0,20.5,91.2,1002.2,317.1,1.0,1.7,322.5,0.00,19.1,23.6,"05:59:04",1
"16/09/09","06:10",0.0,20.5,91.3,1002.4,314.6,1.1,2.0,344.0,0.00,19.1,23.7,"06:00:48",1
"16/09/09","06:20",0.0,21.0,90.3,1002.2,307.9,1.0,1.9,336.2,0.01,19.4,23.6,"06:10:02",1
"16/09/09","06:30",0.0,21.4,88.8,1002.2,323.7,0.8,1.6,326.7,0.02,19.5,23.7,"06:20:08",1
"16/09/09","06:40",0.0,21.6,87.5,1002.4,314.2,0.7,1.3,334.8,0.02,19.5,23.5,"06:36:56",1
"16/09/09","06:50",0.0,21.9,86.5,1002.2,290.9,0.8,2.0,323.4,0.03,19.6,23.7,"06:48:24",1
"16/09/09","07:00",0.0,22.2,85.7,1002.2,304.6,0.7,1.3,309.7,0.04,19.7,23.6,"06:50:48",1
"16/09/09","07:10",0.0,22.3,84.5,1002.6,298.0,0.8,2.7,3.9,0.05,19.6,23.6,"07:09:20",1
"16/09/09","07:20",0.0,22.4,83.6,1002.6,310.1,0.8,1.8,332.5,0.05,19.5,23.6,"07:16:00",1
"16/09/09","07:30",0.0,22.9,82.7,1002.2,315.6,0.8,1.9,358.5,0.08,19.8,23.7,"07:28:40",1
"16/09/09","07:40",0.0,23.0,82.6,1002.9,302.4,0.7,1.4,326.5,0.06,19.9,23.7,"07:38:16",1
"16/09/09","07:50",0.0,22.9,81.7,1002.9,318.6,1.0,2.2,0.4,0.07,19.6,23.8,"07:47:12",1
"16/09/09","08:00",0.2,23.5,80.6,1002.6,286.0,0.6,1.3,319.0,0.13,20.0,23.8,"07:57:04",1
"16/09/09","08:10",0.0,24.1,78.0,1002.4,304.8,0.7,1.8,341.8,0.15,20.1,24.0,"08:00:16",1
"16/09/09","08:20",0.0,25.6,71.4,1002.6,303.3,0.5,1.6,341.0,0.32,20.1,24.1,"08:12:16",1
"16/09/09","08:30",0.0,25.1,72.3,1002.9,324.8,0.8,3.2,5.7,0.22,19.8,24.1,"08:22:40",1
"16/09/09","08:40",0.0,24.8,74.2,1002.4,305.7,0.5,1.4,326.8,0.17,19.9,24.3,"08:39:44",1
"16/09/09","08:50",0.0,25.3,73.9,1002.6,295.9,0.7,1.7,358.0,0.25,20.4,24.3,"08:48:16",1
"16/09/09","09:00",0.0,25.2,70.8,1002.2,296.3,0.7,1.8,207.4,0.26,19.6,24.4,"08:50:48",1
"16/09/09","09:10",0.0,25.9,72.1,1002.6,330.9,0.6,2.0,6.0,0.28,20.5,24.7,"09:07:52",1
"16/09/09","09:20",0.0,26.8,68.5,1001.9,309.0,0.5,1.6,211.4,0.42,20.6,24.7,"09:13:20",1
"16/09/09","09:30",0.0,26.5,68.0,1002.2,253.9,0.6,2.1,220.3,0.40,20.2,25.1,"09:27:20",1
"16/09/09","09:40",0.0,26.2,68.5,1002.4,241.1,1.1,3.7,230.9,0.30,20.0,25.0,"09:32:56",1
"16/09/09","09:50",0.0,26.9,63.1,1002.6,285.8,1.1,3.4,227.1,0.47,19.3,25.2,"09:42:56",1
"16/09/09","10:00",0.0,27.3,61.8,1002.6,4.8,1.1,3.7,10.9,0.47,19.4,25.3,"09:59:12",1
"16/09/09","10:10",0.0,27.1,63.1,1002.6,343.1,1.3,3.9,348.7,0.41,19.5,25.4,"10:05:36",1
"16/09/09","10:20",0.0,26.6,62.9,1002.2,351.9,1.6,4.2,358.7,0.34,19.0,25.7,"10:11:20",1
"16/09/09","10:30",0.0,27.0,60.7,1002.2,339.9,1.2,3.2,0.1,0.35,18.8,25.7,"10:27:12",1
"16/09/09","10:40",0.0,28.0,59.5,1002.4,4.8,0.6,2.1,23.6,0.45,19.4,25.9,"10:36:48",1
"16/09/09","10:50",0.0,26.9,60.8,1001.9,347.2,1.3,3.7,2.5,0.30,18.7,26.2,"10:48:08",1
"16/09/09","11:00",0.0,27.8,60.7,1001.9,350.8,1.6,5.0,344.6,0.50,19.6,26.0,"10:58:32",1
"16/09/09","11:10",0.0,28.5,58.2,1001.9,354.4,1.2,3.5,330.6,0.55,19.5,26.5,"11:02:08",1
"16/09/09","11:20",0.0,28.3,57.7,1002.2,21.6,1.8,4.8,358.0,0.55,19.2,26.5,"11:19:28",1
"16/09/09","11:30",0.0,28.9,57.5,1002.2,19.8,1.3,2.8,11.3,0.56,19.7,26.8,"11:23:44",1
"16/09/09","11:40",0.0,28.7,54.6,1001.9,16.3,2.0,5.5,35.5,0.57,18.7,27.0,"11:34:24",1
"16/09/09","11:50",0.0,28.8,56.0,1001.9,4.0,1.8,4.0,358.9,0.58,19.2,27.0,"11:46:24",1
"16/09/09","12:00",0.0,29.5,56.1,1001.7,327.5,1.3,5.7,339.1,0.60,19.9,27.2,"11:53:52",1
"16/09/09","12:10",0.0,29.6,54.3,1001.9,356.0,1.3,4.8,345.1,0.58,19.4,27.5,"12:06:08",1
"16/09/09","12:20",0.0,29.3,52.1,1001.9,15.9,2.1,5.0,21.0,0.50,18.5,27.7,"12:14:16",1
"16/09/09","12:30",0.0,29.0,56.0,1001.7,348.7,1.3,3.6,353.5,0.32,19.4,27.9,"12:22:56",1
"16/09/09","12:40",0.0,30.1,57.8,1001.9,306.0,0.8,2.5,345.5,0.52,20.9,28.0,"12:35:44",1
"16/09/09","12:50",0.0,28.3,58.6,1001.7,10.5,2.0,4.2,7.3,0.29,19.5,28.0,"12:43:20",1
"16/09/09","13:00",0.0,29.4,56.6,1001.5,283.6,0.8,2.9,336.0,0.54,19.9,28.1,"12:55:12",1
"16/09/09","13:10",0.0,29.7,54.6,1001.9,228.2,1.0,5.1,18.3,0.50,19.6,28.2,"13:08:56",1
"16/09/09","13:20",0.0,28.3,54.6,1001.9,351.7,1.6,3.5,344.6,0.32,18.3,28.3,"13:15:04",1
"16/09/09","13:30",0.0,29.2,60.3,1001.2,357.4,1.5,4.2,347.3,0.33,20.8,28.4,"13:24:24",1
"16/09/09","13:40",0.0,30.0,54.5,1001.5,1.7,1.2,3.6,50.4,0.51,19.9,28.4,"13:34:32",1
"16/09/09","13:50",0.0,28.9,58.2,1001.5,347.4,1.0,3.3,356.6,0.27,19.9,28.6,"13:40:08",1
"16/09/09","14:00",0.0,27.9,58.2,1001.2,357.9,1.3,2.9,10.4,0.13,19.0,28.3,"13:57:12",1
"16/09/09","14:10",0.0,27.0,61.3,1001.0,357.7,1.8,3.9,346.6,0.07,19.0,28.5,"14:06:00",1
"16/09/09","14:20",0.0,26.9,62.0,1000.0,352.5,1.7,4.0,354.7,0.13,19.0,28.4,"14:17:12",1
"16/09/09","14:30",0.0,28.7,57.8,1000.0,7.1,1.5,3.5,13.3,0.42,19.6,28.4,"14:21:12",1
"16/09/09","14:40",0.0,28.5,57.5,1000.8,349.2,1.8,4.4,324.0,0.38,19.3,28.3,"14:39:36",1
"16/09/09","14:50",0.0,28.0,58.8,1000.8,340.5,1.5,3.4,9.5,0.32,19.2,28.3,"14:47:28",1
"16/09/09","15:00",0.0,28.6,55.9,1001.0,336.6,1.3,2.9,14.7,0.33,19.0,28.2,"14:58:24",1
"16/09/09","15:10",0.0,28.0,57.8,1000.8,353.1,2.0,5.5,21.2,0.27,19.0,28.2,"15:03:44",1
"16/09/09","15:20",0.0,27.8,58.9,1000.5,335.7,1.3,3.5,3.1,0.19,19.1,28.2,"15:19:12",1
"16/09/09","15:30",0.0,28.1,59.4,1000.8,359.1,1.3,3.4,7.3,0.21,19.5,28.2,"15:21:12",1
"16/09/09","15:40",0.0,27.6,58.7,1000.5,7.6,1.6,2.7,2.6,0.10,18.8,28.1,"15:36:16",1
"16/09/09","15:50",0.0,27.5,60.1,1000.5,347.1,1.7,4.5,356.9,0.22,19.1,27.8,"15:42:32",1
"16/09/09","16:00",0.0,27.5,60.4,1000.3,353.1,2.1,5.0,15.5,0.21,19.2,27.9,"15:57:20",1
"16/09/09","16:10",0.0,26.7,62.8,1000.8,358.2,2.2,4.5,8.7,0.06,19.1,27.8,"16:02:16",1
"16/09/09","16:20",0.0,26.3,63.6,1001.5,352.9,2.2,4.5,17.7,0.07,18.9,27.6,"16:19:36",1
"16/09/09","16:30",0.0,26.3,64.7,1001.2,4.9,2.1,5.2,13.3,0.03,19.2,27.5,"16:22:32",1
"16/09/09","16:40",0.0,26.3,64.7,1001.0,357.4,1.8,4.9,40.4,0.02,19.2,27.3,"16:30:02",1
"16/09/09","16:50",0.0,26.1,66.6,1001.5,350.8,1.7,3.7,352.0,0.02,19.4,27.3,"16:43:20",1
"16/09/09","17:00",0.0,25.9,65.9,1001.7,340.6,1.7,4.5,343.3,0.03,19.1,27.2,"16:56:00",1
"16/09/09","17:10",0.0,25.8,66.7,1001.9,348.8,1.6,3.1,345.5,0.03,19.2,27.1,"17:08:56",1
"16/09/09","17:20",0.0,25.5,67.2,1001.9,356.0,1.6,3.4,341.1,0.02,19.0,27.1,"17:12:56",1
"16/09/09","17:30",0.0,25.1,67.6,1002.2,347.1,2.2,4.9,330.9,0.01,18.7,26.8,"17:28:08",1
"16/09/09","17:40",0.0,24.8,69.2,1002.4,353.1,2.0,5.2,340.0,0.01,18.8,26.8,"17:35:36",1
"16/09/09","17:50",0.0,24.3,70.7,1002.6,346.6,1.8,3.7,338.3,0.00,18.7,26.6,"17:42:32",1
"16/09/09","18:00",0.0,24.0,71.2,1002.4,355.3,1.6,3.7,348.9,0.00,18.5,26.5,"17:56:16",1
"16/09/09","18:10",0.0,23.8,73.0,1002.6,340.5,1.7,3.6,340.8,0.00,18.7,26.6,"18:00:08",1
"16/09/09","18:20",0.0,23.3,74.3,1002.9,321.2,1.5,3.9,329.3,0.00,18.5,26.2,"18:10:08",1
"16/09/09","18:30",0.0,22.9,75.7,1002.9,312.0,1.3,2.2,333.0,0.00,18.4,26.3,"18:23:36",1
"16/09/09","18:40",0.0,22.6,77.2,1003.4,304.1,1.1,2.9,342.6,0.00,18.4,26.2,"18:32:48",1
"16/09/09","18:50",0.0,22.3,77.9,1003.6,300.8,1.1,3.4,328.8,0.00,18.3,26.1,"18:45:04",1
"16/09/09","19:00",0.0,22.1,79.6,1003.4,296.6,0.8,1.1,311.2,0.00,18.4,25.9,"18:50:48",1
"16/09/09","19:10",0.0,21.8,80.3,1003.8,297.5,0.8,1.4,341.1,0.00,18.3,25.9,"19:07:28",1
"16/09/09","19:20",0.0,21.6,80.5,1004.1,303.9,0.8,1.6,326.7,0.00,18.1,25.8,"19:10:08",1
"16/09/09","19:30",0.0,21.4,81.8,1004.3,301.2,0.8,1.4,333.1,0.00,18.2,25.6,"19:21:04",1
"16/09/09","19:40",0.0,21.2,82.6,1004.5,303.1,0.8,1.4,312.2,0.00,18.2,25.5,"19:34:48",1
"16/09/09","19:50",0.0,21.0,83.2,1005.2,301.5,0.6,0.9,343.9,0.00,18.1,25.7,"19:41:36",1
"16/09/09","20:00",0.0,20.8,84.7,1005.2,299.5,0.7,0.9,309.7,0.00,18.2,25.4,"19:50:48",1
"16/09/09","20:10",0.0,20.6,85.5,1005.2,336.4,1.1,1.6,331.5,0.00,18.1,25.2,"20:05:44",1
"16/09/09","20:20",0.0,20.3,86.4,1005.2,306.7,1.0,1.6,333.6,0.00,18.0,25.2,"20:11:12",1
"16/09/09","20:30",0.0,20.0,87.3,1005.5,323.8,1.0,1.4,350.3,0.00,17.9,25.2,"20:26:32",1
"16/09/09","20:40",0.0,19.9,87.9,1005.5,310.6,0.8,1.6,329.3,0.00,17.9,25.1,"20:30:24",1
"16/09/09","20:50",0.0,19.9,88.5,1005.5,323.9,1.0,1.7,329.7,0.00,18.0,25.1,"20:45:20",1
"16/09/09","21:00",0.0,19.7,89.1,1005.7,310.6,1.1,2.0,337.0,0.00,17.9,24.9,"20:56:00",1
"16/09/09","21:10",0.0,19.6,89.4,1006.0,297.4,0.7,1.0,317.2,0.00,17.8,24.8,"21:01:52",1
"16/09/09","21:20",0.0,19.5,89.8,1005.2,320.4,0.8,1.7,329.6,0.00,17.8,24.8,"21:19:28",1
"16/09/09","21:30",0.0,19.6,89.7,1006.0,311.1,1.0,1.6,309.8,0.00,17.9,24.8,"21:21:36",1
"16/09/09","21:40",0.0,19.6,89.7,1005.5,309.5,0.8,1.4,339.1,0.00,17.9,24.7,"21:36:08",1
"16/09/09","21:50",0.0,19.5,89.8,1005.5,304.3,0.8,1.3,317.5,0.00,17.8,24.6,"21:47:36",1
"16/09/09","22:00",0.0,19.5,90.0,1005.7,288.4,0.7,1.1,325.9,0.00,17.9,24.7,"21:51:36",1
"16/09/09","22:10",0.0,19.3,90.2,1005.7,303.7,0.7,1.1,323.7,0.00,17.7,24.5,"22:03:36",1
"16/09/09","22:20",0.0,19.1,90.7,1005.7,292.2,0.7,0.9,310.4,0.00,17.6,24.4,"22:10:08",1
"16/09/09","22:30",0.0,19.0,91.3,1006.0,299.4,0.8,1.2,313.9,0.00,17.6,24.4,"22:22:00",1
"16/09/09","22:40",0.0,18.9,91.7,1006.0,292.4,0.7,1.6,332.3,0.00,17.6,24.5,"22:31:04",1
"16/09/09","22:50",0.0,18.9,92.1,1005.7,296.9,1.0,1.3,311.8,0.00,17.6,24.2,"22:45:12",1
"16/09/09","23:00",0.0,19.0,92.3,1005.7,306.7,1.2,1.6,317.6,0.00,17.8,24.1,"22:54:24",1
"16/09/09","23:10",0.0,19.3,91.7,1006.0,321.3,1.5,3.3,344.8,0.00,18.0,24.1,"23:08:40",1
"16/09/09","23:20",0.0,19.4,91.4,1005.7,310.8,1.2,2.8,341.2,0.00,18.0,24.2,"23:10:08",1
"16/09/09","23:30",0.0,19.4,91.2,1005.2,303.8,1.1,1.7,323.3,0.00,18.0,24.0,"23:22:48",1
"16/09/09","23:40",0.0,19.3,90.7,1005.7,296.3,0.6,1.2,317.5,0.00,17.8,24.1,"23:35:36",1
"16/09/09","23:50",0.0,19.2,91.0,1005.7,304.3,0.8,1.4,329.5,0.00,17.7,23.9,"23:44:24",1
"16/09/09","24:00",0.0,19.1,91.3,1005.5,298.1,0.8,1.3,317.2,0.00,17.7,24.0,"23:55:28",1
